South Hill, VA

4:43 PM EDT on September 23, 2019 (GMT -0400)
Mecklenburg-Brunswick Regional

Weather History for KAVC - August, 2019

Change the Weather History Date:

Wednesday, August 21, 2019

  Actual Average (WUND) Record (WUND)
Temperature  
Mean Temperature 80 °F -  
Max Temperature 89 °F - - (-1)
Min Temperature 72 °F - - (-1)
Cooling Degree Days 16    
Growing Degree Days 30 (Base 50)    
Moisture  
Dew Point 75 °F    
Average Humidity 87    
Maximum Humidity 100    
Minimum Humidity 64    
Precipitation  
Precipitation 0.01 in - - ()
Sea Level Pressure  
Sea Level Pressure 30.07 in    
Wind  
Wind Speed 4 mph (SSW)    
Max Wind Speed 13 mph    
Max Gust Speed 20 mph    
Visibility 8 miles    
Events      
Averages and records for this station are not official NWS values.
T = Trace of Precipitation, MM = Missing Value Source: NWS Daily Summary

Daily Weather History Graph

Daily Weather History Graph

Search for Another Location

Airport or City:

Astronomy

Aug. 21, 2019 Rise Set
Actual Time 6:34 AM EDT 7:55 PM EDT
Civil Twilight 6:07 AM EDT 8:22 PM EDT
Nautical Twilight 5:34 AM EDT 8:55 PM EDT
Astronomical Twilight 5:00 AM EDT 9:29 PM EDT
Moon 11:21 PM EDT (8/21) 11:59 AM EDT (8/21)
Length of Visible Light 14h 15m
Length of Day
13h 21m
Waning Gibbous, 69% of the Moon is Illuminated
Aug 21
Waning Gibbous
Aug 23
Last Quarter
Aug 30
New
Sep 5
First Quarter
Sep 14
Full

Hourly Weather History & Observations

Time (EDT) Temp. Heat Index Dew Point Humidity Pressure Visibility Wind Dir Wind Speed Gust Speed Precip Events Conditions
12:15 AM 77.2 °F - 76.6 °F 98% 30.14 in 3.0 mi Calm Calm - N/A   Clear
12:35 AM 76.3 °F - 76.3 °F 100% 30.15 in 7.0 mi Calm Calm - N/A   Scattered Clouds
12:55 AM 77.2 °F - 76.6 °F 98% 30.15 in 1.8 mi Calm Calm - N/A   Overcast
1:15 AM 76.8 °F - 76.3 °F 98% 30.14 in 0.5 mi Calm Calm - N/A   Overcast
1:35 AM 75.9 °F - 75.9 °F 100% 30.14 in 2.0 mi South 3.5 mph - N/A   Scattered Clouds
1:55 AM 76.1 °F - 75.2 °F 97% 30.12 in 1.8 mi SSW 4.6 mph - N/A   Unknown
2:15 AM 75.7 °F - 75.2 °F 98% 30.12 in 2.5 mi Calm Calm - N/A   Clear
2:35 AM 75.9 °F - 75.2 °F 98% 30.12 in 5.0 mi SSW 3.5 mph - N/A   Clear
2:55 AM 76.1 °F - 74.5 °F 95% 30.12 in 3.0 mi Calm Calm - N/A   Clear
3:15 AM 75.2 °F - 74.3 °F 97% 30.12 in 1.8 mi Calm Calm - N/A   Unknown
3:35 AM 75.2 °F - 73.2 °F 94% 30.12 in 1.0 mi South 3.5 mph - N/A   Unknown
3:55 AM 74.5 °F - 72.9 °F 95% 30.12 in 1.8 mi Calm Calm - N/A   Unknown
4:15 AM 73.4 °F - 72.7 °F 98% 30.12 in 0.8 mi SSW 3.5 mph - N/A   Unknown
4:35 AM 73.4 °F - 72.5 °F 97% 30.12 in 0.8 mi SSW 3.5 mph - N/A   Unknown
4:55 AM 73.4 °F - 72.0 °F 95% 30.12 in 2.5 mi SSW 3.5 mph - N/A   Scattered Clouds
5:15 AM 73.4 °F - 71.6 °F 94% 30.11 in 0.2 mi South 5.8 mph - N/A   Mostly Cloudy
5:35 AM 73.0 °F - 71.6 °F 95% 30.11 in 2.5 mi SSW 4.6 mph - N/A   Clear
5:55 AM 73.4 °F - 71.6 °F 94% 30.11 in 3.0 mi Calm Calm - N/A   Mostly Cloudy
6:15 AM 73.4 °F - 72.3 °F 96% 30.11 in 10.0 mi SSW 3.5 mph - N/A   Overcast
6:35 AM 72.9 °F - 71.8 °F 96% 30.10 in 10.0 mi SSE 3.5 mph - N/A   Overcast
6:55 AM 72.9 °F - 72.0 °F 97% 30.10 in 10.0 mi Calm Calm - N/A   Overcast
7:10 AM 72.5 °F - 72.3 °F 99% 30.10 in 10.0 mi South 3.5 mph - N/A   Mostly Cloudy
7:35 AM 73.4 °F - 72.3 °F 96% 30.11 in 10.0 mi South 3.5 mph - N/A   Mostly Cloudy
7:55 AM 74.3 °F - 72.7 °F 95% 30.11 in 10.0 mi South 4.6 mph - N/A   Mostly Cloudy
8:15 AM 74.7 °F - 72.7 °F 94% 30.11 in 10.0 mi South 9.2 mph - N/A   Scattered Clouds
8:35 AM 75.2 °F - 73.0 °F 93% 30.10 in 10.0 mi South 5.8 mph - N/A   Mostly Cloudy
8:55 AM 75.4 °F - 73.4 °F 94% 30.10 in 10.0 mi SSW 6.9 mph - N/A   Overcast
9:15 AM 73.8 °F - 73.8 °F 100% 30.10 in 7.0 mi SSW 8.1 mph - N/A   Overcast
9:35 AM 73.6 °F - 73.6 °F 100% 30.10 in 5.0 mi SSW 9.2 mph - N/A   Overcast
9:55 AM 73.4 °F - 73.4 °F 100% 30.09 in 10.0 mi SW 8.1 mph - N/A   Overcast
10:15 AM 75.2 °F - 74.8 °F 99% 30.09 in 10.0 mi SSW 11.5 mph 16.1 mph 0.01 in   Overcast
10:35 AM 75.2 °F - 74.7 °F 98% 30.09 in 10.0 mi SSW 9.2 mph - 0.01 in   Overcast
10:55 AM 77.2 °F - 75.6 °F 95% 30.10 in 10.0 mi SSW 4.6 mph - 0.01 in   Overcast
11:15 AM 78.6 °F - 75.4 °F 90% 30.09 in 10.0 mi SSW 9.2 mph - N/A   Overcast
11:35 AM 77.4 °F - 74.3 °F 90% 30.10 in 10.0 mi SW 6.9 mph - N/A   Overcast
11:55 AM 78.6 °F - 73.8 °F 85% 30.10 in 10.0 mi SW 9.2 mph 16.1 mph N/A   Overcast
12:15 PM 82.0 °F 88.4 °F 74.5 °F 78% 30.09 in 10.0 mi SW 8.1 mph 19.6 mph N/A   Mostly Cloudy
12:35 PM 82.6 °F 88.8 °F 73.9 °F 75% 30.08 in 10.0 mi WSW 8.1 mph - N/A   Mostly Cloudy
12:55 PM 82.9 °F 89.9 °F 74.7 °F 76% 30.07 in 10.0 mi SSW 9.2 mph - N/A   Mostly Cloudy
1:15 PM 83.5 °F 90.6 °F 74.5 °F 74% 30.07 in 10.0 mi SW 11.5 mph 18.4 mph N/A   Scattered Clouds
1:35 PM 83.8 °F 91.1 °F 74.5 °F 73% 30.06 in 10.0 mi SW 12.7 mph 17.3 mph N/A   Mostly Cloudy
1:55 PM 84.4 °F 92.7 °F 75.2 °F 74% 30.06 in 10.0 mi SSW 12.7 mph 17.3 mph N/A   Mostly Cloudy
2:15 PM 85.8 °F 95.5 °F 75.9 °F 72% 30.04 in 10.0 mi SW 10.4 mph 16.1 mph N/A   Mostly Cloudy
2:35 PM 84.7 °F 92.8 °F 75.0 °F 72% 30.04 in 10.0 mi SW 12.7 mph - N/A   Mostly Cloudy
2:55 PM 85.5 °F 95.0 °F 75.7 °F 73% 30.03 in 10.0 mi SW 10.4 mph 18.4 mph N/A   Mostly Cloudy
3:15 PM 87.8 °F 97.6 °F 75.4 °F 66% 30.03 in 10.0 mi SW 8.1 mph - N/A   Scattered Clouds
3:35 PM 87.6 °F 97.6 °F 75.6 °F 67% 30.02 in 10.0 mi SW 10.4 mph 16.1 mph N/A   Scattered Clouds
3:55 PM 88.7 °F 100.4 °F 76.6 °F 67% 30.02 in 10.0 mi SW 6.9 mph - N/A   Scattered Clouds
4:15 PM 89.6 °F 101.6 °F 76.3 °F 65% 30.02 in 10.0 mi WSW 6.9 mph - N/A   Scattered Clouds
4:55 PM 88.7 °F 100.4 °F 76.6 °F 67% 30.01 in 10.0 mi SSW 11.5 mph - N/A   Mostly Cloudy
5:15 PM 88.7 °F 100.4 °F 76.3 °F 67% 30.01 in 10.0 mi SSW 11.5 mph - N/A   Scattered Clouds
5:35 PM 88.7 °F 99.8 °F 76.1 °F 66% 30.01 in 10.0 mi SSW 9.2 mph - N/A   Scattered Clouds
5:55 PM 88.7 °F 98.7 °F 75.0 °F 64% 30.01 in 10.0 mi SSW 10.4 mph - N/A   Clear
6:15 PM 87.6 °F 97.1 °F 74.8 °F 66% 30.01 in 10.0 mi SSW 8.1 mph - N/A   Clear
6:35 PM 87.3 °F 97.2 °F 75.7 °F 68% 30.00 in 10.0 mi SSW 5.8 mph - N/A   Clear
6:55 PM 86.4 °F 96.4 °F 75.9 °F 71% 30.00 in 10.0 mi South 8.1 mph - N/A   Clear
7:15 PM 84.0 °F 93.3 °F 76.5 °F 78% 30.00 in 10.0 mi South 6.9 mph - N/A   Clear
7:35 PM 82.2 °F 90.4 °F 77.0 °F 84% 30.01 in 10.0 mi South 5.8 mph - N/A   Clear
7:55 PM 81.0 °F 87.9 °F 77.2 °F 88% 30.01 in 10.0 mi South 5.8 mph - N/A   Clear
8:15 PM 80.8 °F 87.4 °F 77.0 °F 88% 30.01 in 10.0 mi South 5.8 mph - N/A   Clear
8:35 PM 79.9 °F - 76.6 °F 90% 30.01 in 10.0 mi South 5.8 mph - N/A   Clear
8:55 PM 79.9 °F - 76.1 °F 88% 30.01 in 10.0 mi South 4.6 mph - N/A   Clear
9:15 PM 79.2 °F - 76.1 °F 90% 30.01 in 10.0 mi SSW 4.6 mph - N/A   Clear
9:35 PM 78.4 °F - 76.1 °F 92% 30.02 in 10.0 mi SW 3.5 mph - N/A   Clear
9:55 PM 78.6 °F - 75.7 °F 91% 30.02 in 10.0 mi SSW 4.6 mph - N/A   Clear
10:15 PM 77.7 °F - 75.6 °F 93% 30.03 in 10.0 mi SSW 3.5 mph - N/A   Clear
10:35 PM 77.0 °F - 75.0 °F 94% 30.04 in 10.0 mi SSW 5.8 mph - N/A   Mostly Cloudy
10:55 PM 77.9 °F - 72.1 °F 82% 30.05 in 10.0 mi SSW 9.2 mph - N/A   Scattered Clouds
11:15 PM 77.0 °F - 70.9 °F 81% 30.05 in 10.0 mi SSW 10.4 mph - N/A   Clear
11:55 PM 76.1 °F - 69.3 °F 79% 30.07 in 10.0 mi SSW 9.2 mph 17.3 mph N/A   Clear